When you browse on this site, cookies collect data to enhance your experience and personalize the content and advertising you see.
Visit our Privacy Policy to learn more. By continuing to use the site, you agree to this use of cookies and data.
  • In Hungary
  • List of Countries
  • For 7 days
  • Water Temperature
  • Satellite Maps
  • Weather Map
  • News
  • Weather Widgets
  • user-avatar
    Login

    Hourly Weather Abilene

    Today, 24 June, Monday

    Time Temperature Precipitation Wind Pressure Humidity
    00:00 +25°C° 0 mm 5 mps 712 mmHg 73%
    01:00 +25°C° 0 mm 4 mps 712 mmHg 69%
    02:00 +24°C° 0 mm 3 mps 712 mmHg 65%
    03:00 +24°C° 0 mm 2 mps 712 mmHg 68%
    04:00 +24°C° 0 mm 2 mps 713 mmHg 71%
    05:00 +24°C° 0 mm 1 mps 713 mmHg 74%
    06:00 +25°C° 0 mm 2 mps 713 mmHg 70%
    07:00 +26°C° 0 mm 3 mps 714 mmHg 66%
    08:00 +27°C° 0 mm 4 mps 714 mmHg 61%
    09:00 +29°C° 0 mm 4 mps 714 mmHg 57%
    10:00 +32°C° 0 mm 4 mps 714 mmHg 52%
    11:00 +34°C° 0 mm 3 mps 715 mmHg 47%
    12:00 +35°C° 0 mm 3 mps 714 mmHg 43%
    13:00 +36°C° 0 mm 3 mps 714 mmHg 39%
    14:00 +38°C° 0 mm 2 mps 713 mmHg 34%
    15:00 +35°C° 0.9 mm 4 mps 713 mmHg 43%
    16:00 +32°C° 0.9 mm 6 mps 713 mmHg 52%
    17:00 +29°C° 0.9 mm 7 mps 712 mmHg 61%
    18:00 +27°C° 4.7 mm 7 mps 713 mmHg 64%
    19:00 +24°C° 4.7 mm 6 mps 713 mmHg 67%
    20:00 +22°C° 4.7 mm 5 mps 714 mmHg 70%
    21:00 +22°C° 0 mm 5 mps 714 mmHg 68%
    22:00 +22°C° 0 mm 5 mps 714 mmHg 67%
    23:00 +23°C° 0 mm 4 mps 713 mmHg 66%

    Tomorrow, 25 June, Tuesday

    Time Temperature Precipitation Wind Pressure Humidity
    00:00 +23°C° 0.1 mm 5 mps 713 mmHg 66%
    01:00 +22°C° 0.1 mm 5 mps 713 mmHg 66%
    02:00 +22°C° 0.1 mm 6 mps 713 mmHg 66%
    03:00 +22°C° 0 mm 5 mps 713 mmHg 71%
    04:00 +22°C° 0 mm 4 mps 714 mmHg 76%
    05:00 +23°C° 0 mm 2 mps 714 mmHg 81%
    06:00 +25°C° 0 mm 3 mps 714 mmHg 74%
    07:00 +27°C° 0 mm 3 mps 715 mmHg 68%
    08:00 +29°C° 0 mm 3 mps 716 mmHg 61%
    09:00 +31°C° 0 mm 3 mps 716 mmHg 56%
    10:00 +33°C° 0 mm 4 mps 716 mmHg 51%
    11:00 +35°C° 0 mm 5 mps 716 mmHg 45%
    12:00 +36°C° 0 mm 5 mps 716 mmHg 42%
    13:00 +37°C° 0 mm 5 mps 716 mmHg 39%
    14:00 +37°C° 0 mm 5 mps 715 mmHg 36%
    15:00 +37°C° 0 mm 5 mps 715 mmHg 40%
    16:00 +36°C° 0 mm 6 mps 714 mmHg 44%
    17:00 +35°C° 0 mm 7 mps 714 mmHg 48%
    18:00 +34°C° 0 mm 6 mps 714 mmHg 52%
    19:00 +32°C° 0 mm 6 mps 715 mmHg 57%
    20:00 +30°C° 0 mm 6 mps 715 mmHg 61%
    21:00 +29°C° 0 mm 6 mps 715 mmHg 64%
    22:00 +29°C° 0 mm 6 mps 716 mmHg 67%
    23:00 +28°C° 0 mm 6 mps 716 mmHg 71%

    Day after tomorrow, 26 June, Wednesday

    Time Temperature Precipitation Wind Pressure Humidity
    00:00 +27°C° 0.3 mm 5 mps 716 mmHg 73%
    01:00 +27°C° 0.3 mm 3 mps 716 mmHg 76%
    02:00 +26°C° 0.3 mm 2 mps 716 mmHg 79%
    03:00 +26°C° 0.2 mm 3 mps 716 mmHg 80%
    04:00 +25°C° 0.2 mm 4 mps 716 mmHg 81%
    05:00 +25°C° 0.2 mm 5 mps 716 mmHg 82%
    06:00 +27°C° 0 mm 5 mps 717 mmHg 75%
    07:00 +29°C° 0 mm 6 mps 717 mmHg 68%
    08:00 +30°C° 0 mm 6 mps 718 mmHg 61%
    09:00 +33°C° 0 mm 6 mps 718 mmHg 54%
    10:00 +35°C° 0 mm 5 mps 718 mmHg 48%
    11:00 +36°C° 0 mm 5 mps 719 mmHg 42%
    12:00 +37°C° 0 mm 5 mps 718 mmHg 38%
    13:00 +39°C° 0 mm 5 mps 718 mmHg 35%
    14:00 +39°C° 0 mm 5 mps 717 mmHg 31%
    15:00 +39°C° 0 mm 5 mps 717 mmHg 33%
    16:00 +37°C° 0 mm 5 mps 717 mmHg 34%
    17:00 +36°C° 0 mm 6 mps 716 mmHg 35%
    18:00 +35°C° 0 mm 6 mps 717 mmHg 40%
    19:00 +33°C° 0 mm 6 mps 717 mmHg 44%
    20:00 +30°C° 0 mm 6 mps 717 mmHg 49%
    21:00 +30°C° 0 mm 6 mps 717 mmHg 52%
    22:00 +29°C° 0 mm 6 mps 718 mmHg 54%
    23:00 +29°C° 0 mm 6 mps 718 mmHg 57%

    27 June, Thursday

    Time Temperature Precipitation Wind Pressure Humidity
    00:00 +28°C° 0 mm 5 mps 718 mmHg 60%
    01:00 +27°C° 0 mm 5 mps 718 mmHg 64%
    02:00 +26°C° 0 mm 5 mps 717 mmHg 68%
    03:00 +26°C° 0 mm 5 mps 718 mmHg 72%
    04:00 +26°C° 0 mm 5 mps 718 mmHg 77%
    05:00 +25°C° 0 mm 4 mps 718 mmHg 81%
    06:00 +27°C° 0 mm 5 mps 718 mmHg 74%
    07:00 +29°C° 0 mm 5 mps 719 mmHg 67%
    08:00 +30°C° 0 mm 5 mps 719 mmHg 59%
    09:00 +33°C° 0 mm 5 mps 719 mmHg 53%
    10:00 +34°C° 0 mm 5 mps 719 mmHg 46%
    11:00 +36°C° 0 mm 4 mps 719 mmHg 40%
    12:00 +37°C° 0 mm 4 mps 719 mmHg 36%
    13:00 +37°C° 0 mm 4 mps 719 mmHg 32%
    14:00 +38°C° 0 mm 4 mps 718 mmHg 28%
    15:00 +38°C° 0 mm 4 mps 718 mmHg 29%
    16:00 +37°C° 0 mm 4 mps 717 mmHg 31%
    17:00 +37°C° 0 mm 4 mps 717 mmHg 32%
    18:00 +35°C° 0 mm 4 mps 717 mmHg 34%
    19:00 +33°C° 0 mm 4 mps 717 mmHg 37%
    20:00 +32°C° 0 mm 5 mps 717 mmHg 40%
    21:00 +30°C° 0 mm 5 mps 718 mmHg 43%
    22:00 +29°C° 0 mm 4 mps 718 mmHg 47%
    23:00 +28°C° 0 mm 4 mps 718 mmHg 51%

    28 June, Friday

    Time Temperature Precipitation Wind Pressure Humidity
    00:00 +28°C° 0 mm 4 mps 718 mmHg 53%
    01:00 +27°C° 0 mm 4 mps 718 mmHg 55%
    02:00 +27°C° 0 mm 5 mps 717 mmHg 58%
    03:00 +27°C° 0 mm 5 mps 718 mmHg 61%
    04:00 +26°C° 0 mm 5 mps 718 mmHg 64%
    05:00 +26°C° 0 mm 5 mps 718 mmHg 67%
    06:00 +27°C° 0 mm 5 mps 718 mmHg 63%
    07:00 +29°C° 0 mm 6 mps 719 mmHg 59%
    08:00 +32°C° 0 mm 6 mps 719 mmHg 54%
    09:00 +33°C° 0 mm 6 mps 719 mmHg 48%
    10:00 +35°C° 0 mm 5 mps 719 mmHg 41%
    11:00 +37°C° 0 mm 5 mps 719 mmHg 35%
    12:00 +37°C° 0 mm 5 mps 719 mmHg 32%
    13:00 +39°C° 0 mm 5 mps 718 mmHg 29%
    14:00 +40°C° 0 mm 4 mps 718 mmHg 26%
    15:00 +38°C° 0 mm 4 mps 718 mmHg 26%
    16:00 +38°C° 0 mm 4 mps 717 mmHg 26%
    17:00 +38°C° 0 mm 4 mps 717 mmHg 26%
    18:00 +36°C° 0 mm 4 mps 717 mmHg 29%
    19:00 +34°C° 0 mm 4 mps 717 mmHg 32%
    20:00 +32°C° 0 mm 4 mps 717 mmHg 35%
    21:00 +30°C° 0 mm 4 mps 717 mmHg 37%
    22:00 +29°C° 0 mm 4 mps 717 mmHg 40%
    23:00 +28°C° 0 mm 4 mps 717 mmHg 42%

    29 June, Saturday

    Time Temperature Precipitation Wind Pressure Humidity
    00:00 +28°C° 0 mm 4 mps 717 mmHg 44%
    01:00 +27°C° 0 mm 4 mps 717 mmHg 45%
    02:00 +27°C° 0 mm 4 mps 716 mmHg 47%
    03:00 +26°C° 0 mm 4 mps 717 mmHg 49%
    04:00 +26°C° 0 mm 4 mps 717 mmHg 51%
    05:00 +26°C° 0 mm 5 mps 717 mmHg 53%
    06:00 +28°C° 0 mm 5 mps 717 mmHg 50%
    07:00 +29°C° 0 mm 6 mps 718 mmHg 48%
    08:00 +32°C° 0 mm 6 mps 718 mmHg 45%
    09:00 +34°C° 0 mm 6 mps 718 mmHg 40%
    10:00 +35°C° 0 mm 5 mps 718 mmHg 35%
    11:00 +37°C° 0 mm 4 mps 718 mmHg 30%
    12:00 +37°C° 0 mm 4 mps 718 mmHg 28%
    13:00 +38°C° 0 mm 4 mps 717 mmHg 25%
    14:00 +38°C° 0 mm 4 mps 717 mmHg 23%
    15:00 +38°C° 0 mm 4 mps 716 mmHg 24%
    16:00 +38°C° 0 mm 4 mps 716 mmHg 25%
    17:00 +37°C° 0 mm 3 mps 715 mmHg 25%
    18:00 +36°C° 0 mm 3 mps 715 mmHg 28%
    19:00 +34°C° 0 mm 3 mps 715 mmHg 30%
    20:00 +31°C° 0 mm 3 mps 715 mmHg 33%
    21:00 +30°C° 0 mm 4 mps 715 mmHg 35%
    22:00 +29°C° 0 mm 4 mps 716 mmHg 37%
    23:00 +29°C° 0 mm 4 mps 716 mmHg 40%
    Show more